Location: *
(40.7873°S, 98.7174°E)
Time: 00:20:04
(UTC+00:00)

ARIANE 6 FM1 Upper Stage - Pass Details

Date: 17 December 2025
Orbit: 522 x 610 km, 62.0° (Epoch: 20 January)

Event Time Altitude Azimuth Distance (km) Brightness Sun altitude
Rises 20:28:03 0° 234° (SW) 2,893 6.2 -12.6°
Reaches altitude 10° 20:31:05 10° 255° (WSW) 1,967 5.2 -12.2°
Maximum altitude 20:33:49 16° 293° (WNW) 1,584 4.4 -11.8°
Enters shadow 20:34:09 16° 298° (WNW) 1,588 4.4 -11.8°
